Powrót do katalogu

STARLINK-36502

AktywnyŁącznośćVLEO
NORAD 67627·PAYLOAD·🇺🇸 United States

Wystrzelony Jan 30, 2026 z Cape Canaveral Space Force Station

Loading…

Następne Przeloty (najbliższe 24 godziny)

TLE

ŚwieżeSource: CelesTrak SupGP

Epoka: Sep 14, 2026, 23:00 UTC

1 67627C 26020L   26257.95881944 -.00037596  00000+0 -13617-2 0  2576
2 67627  43.0005 150.7932 0001350 269.3552 358.0953 15.27597932    14

Śledź STARLINK-36502 w czasie rzeczywistym z AllMySat

Download on the App Store